TimeCDT,TemperatureF,Dew PointF,Humidity,Sea Level PressureIn,VisibilityMPH,Wind Direction,Wind SpeedMPH,Gust SpeedMPH,PrecipitationIn,Events,Conditions,WindDirDegrees,DateUTC
12:15 AM,26.6,8.6,47,30.04,10.0,North,9.2,16.1,N/A,,Mostly Cloudy,10,2013-04-01 05:15:00
12:35 AM,26.6,8.6,47,30.05,10.0,North,9.2,-,N/A,,Overcast,350,2013-04-01 05:35:00
12:55 AM,26.6,8.6,47,30.05,10.0,North,10.4,-,N/A,,Overcast,10,2013-04-01 05:55:00
1:15 AM,26.6,8.6,47,30.05,10.0,North,8.1,-,N/A,,Overcast,360,2013-04-01 06:15:00
1:35 AM,26.6,14.0,59,30.06,10.0,NNW,8.1,-,N/A,,Overcast,330,2013-04-01 06:35:00
1:55 AM,24.8,15.8,69,30.07,10.0,NNW,11.5,-,N/A,,Overcast,340,2013-04-01 06:55:00
2:15 AM,23.0,14.0,68,30.07,10.0,NNW,15.0,20.7,N/A,,Overcast,340,2013-04-01 07:15:00
2:35 AM,23.0,14.0,68,30.08,10.0,NW,11.5,-,N/A,,Mostly Cloudy,320,2013-04-01 07:35:00
2:55 AM,21.2,14.0,74,30.08,10.0,NNW,11.5,-,N/A,,Overcast,330,2013-04-01 07:55:00
3:15 AM,21.2,14.0,74,30.08,10.0,NNW,10.4,-,N/A,,Mostly Cloudy,340,2013-04-01 08:15:00
3:35 AM,21.2,12.2,68,30.09,10.0,NNW,10.4,-,N/A,,Scattered Clouds,330,2013-04-01 08:35:00
3:55 AM,21.2,12.2,68,30.09,10.0,NW,10.4,-,N/A,,Scattered Clouds,320,2013-04-01 08:55:00
4:15 AM,19.4,12.2,74,30.10,10.0,NW,9.2,-,N/A,,Clear,320,2013-04-01 09:15:00
4:35 AM,19.4,12.2,74,30.10,10.0,NNW,9.2,-,N/A,,Clear,340,2013-04-01 09:35:00
4:55 AM,19.4,12.2,74,30.11,10.0,NNW,5.8,-,N/A,,Clear,330,2013-04-01 09:55:00
5:15 AM,19.4,10.4,68,30.12,10.0,NNW,6.9,-,N/A,,Clear,330,2013-04-01 10:15:00
5:35 AM,17.6,10.4,73,30.13,10.0,NNW,6.9,-,N/A,,Clear,330,2013-04-01 10:35:00
5:55 AM,17.6,10.4,73,30.13,10.0,NNW,6.9,-,N/A,,Clear,340,2013-04-01 10:55:00
6:15 AM,17.6,10.4,73,30.14,10.0,NNW,6.9,-,N/A,,Clear,330,2013-04-01 11:15:00
6:35 AM,17.6,10.4,73,30.15,10.0,NNW,8.1,-,N/A,,Clear,330,2013-04-01 11:35:00
6:55 AM,17.6,10.4,73,30.15,10.0,NNW,6.9,-,N/A,,Clear,340,2013-04-01 11:55:00
7:15 AM,17.6,10.4,73,30.16,10.0,NNW,6.9,-,N/A,,Clear,330,2013-04-01 12:15:00
7:35 AM,17.6,10.4,73,30.17,10.0,North,10.4,-,N/A,,Clear,350,2013-04-01 12:35:00
7:55 AM,17.6,10.4,73,30.17,10.0,North,9.2,-,N/A,,Clear,350,2013-04-01 12:55:00
8:15 AM,19.4,10.4,68,30.17,10.0,North,11.5,-,N/A,,Clear,350,2013-04-01 13:15:00
8:35 AM,19.4,10.4,68,30.17,10.0,NNW,11.5,-,N/A,,Clear,340,2013-04-01 13:35:00
8:55 AM,21.2,10.4,63,30.18,10.0,North,12.7,16.1,N/A,,Clear,350,2013-04-01 13:55:00
9:15 AM,21.2,10.4,63,30.18,10.0,North,11.5,19.6,N/A,,Clear,350,2013-04-01 14:15:00
9:35 AM,23.0,10.4,59,30.18,10.0,North,10.4,-,N/A,,Clear,350,2013-04-01 14:35:00
9:55 AM,23.0,10.4,59,30.19,10.0,NNW,15.0,21.9,N/A,,Clear,340,2013-04-01 14:55:00
10:15 AM,23.0,10.4,59,30.19,10.0,North,12.7,-,N/A,,Clear,360,2013-04-01 15:15:00
10:35 AM,24.8,10.4,54,30.19,10.0,NNW,12.7,16.1,N/A,,Clear,330,2013-04-01 15:35:00
10:55 AM,26.6,10.4,51,30.19,10.0,North,13.8,21.9,N/A,,Clear,10,2013-04-01 15:55:00
11:15 AM,26.6,10.4,51,30.19,10.0,NNW,15.0,21.9,N/A,,Clear,340,2013-04-01 16:15:00
11:35 AM,26.6,10.4,51,30.19,10.0,NNW,12.7,20.7,N/A,,Clear,330,2013-04-01 16:35:00
11:55 AM,28.4,10.4,47,30.19,10.0,North,11.5,16.1,N/A,,Clear,350,2013-04-01 16:55:00
12:15 PM,28.4,10.4,47,30.18,10.0,NNW,17.3,23.0,N/A,,Clear,330,2013-04-01 17:15:00
12:35 PM,30.2,10.4,44,30.18,10.0,North,15.0,19.6,N/A,,Clear,10,2013-04-01 17:35:00
12:55 PM,30.2,10.4,44,30.18,10.0,NNW,16.1,21.9,N/A,,Clear,340,2013-04-01 17:55:00
1:15 PM,30.2,8.6,40,30.18,10.0,North,16.1,23.0,N/A,,Clear,360,2013-04-01 18:15:00
1:35 PM,32.0,8.6,38,30.17,10.0,North,12.7,18.4,N/A,,Clear,350,2013-04-01 18:35:00
1:55 PM,32.0,8.6,38,30.16,10.0,NNW,11.5,25.3,N/A,,Clear,340,2013-04-01 18:55:00
2:15 PM,32.0,8.6,38,30.16,10.0,NNW,17.3,24.2,N/A,,Clear,330,2013-04-01 19:15:00
2:35 PM,32.0,10.4,41,30.16,10.0,NW,15.0,20.7,N/A,,Clear,320,2013-04-01 19:35:00
2:55 PM,32.0,8.6,38,30.16,10.0,NNW,15.0,23.0,N/A,,Clear,330,2013-04-01 19:55:00
3:15 PM,32.0,8.6,38,30.16,10.0,North,13.8,20.7,N/A,,Clear,360,2013-04-01 20:15:00
3:35 PM,32.0,8.6,38,30.15,10.0,NNW,15.0,20.7,N/A,,Clear,340,2013-04-01 20:35:00
3:55 PM,33.8,8.6,35,30.15,10.0,NNW,18.4,25.3,N/A,,Clear,340,2013-04-01 20:55:00
4:15 PM,33.8,8.6,35,30.15,10.0,North,12.7,-,N/A,,Clear,360,2013-04-01 21:15:00
4:35 PM,33.8,8.6,35,30.15,10.0,NNW,13.8,25.3,N/A,,Clear,340,2013-04-01 21:35:00
4:55 PM,33.8,8.6,35,30.15,10.0,NNW,13.8,24.2,N/A,,Clear,330,2013-04-01 21:55:00
5:15 PM,32.0,8.6,38,30.15,10.0,North,15.0,26.5,N/A,,Clear,360,2013-04-01 22:15:00
5:35 PM,33.8,10.4,38,30.15,10.0,NNW,16.1,21.9,N/A,,Clear,340,2013-04-01 22:35:00
5:55 PM,33.8,8.6,35,30.15,10.0,NW,16.1,20.7,N/A,,Clear,310,2013-04-01 22:55:00
6:15 PM,33.8,8.6,35,30.15,10.0,NNW,12.7,18.4,N/A,,Clear,330,2013-04-01 23:15:00
6:35 PM,32.0,8.6,38,30.15,10.0,North,11.5,19.6,N/A,,Clear,350,2013-04-01 23:35:00
6:55 PM,32.0,8.6,38,30.15,10.0,NNW,11.5,19.6,N/A,,Clear,330,2013-04-01 23:55:00
7:15 PM,32.0,8.6,38,30.15,10.0,NNW,9.2,18.4,N/A,,Clear,330,2013-04-02 00:15:00
7:35 PM,32.0,8.6,38,30.15,10.0,NNW,9.2,-,N/A,,Clear,330,2013-04-02 00:35:00
7:55 PM,30.2,8.6,40,30.15,10.0,NNW,9.2,18.4,N/A,,Clear,340,2013-04-02 00:55:00
8:15 PM,30.2,8.6,40,30.16,10.0,NNW,6.9,-,N/A,,Clear,340,2013-04-02 01:15:00
8:35 PM,28.4,8.6,43,30.16,10.0,NW,3.5,-,N/A,,Clear,320,2013-04-02 01:35:00
8:55 PM,28.4,8.6,43,30.17,10.0,NNW,8.1,-,N/A,,Clear,340,2013-04-02 01:55:00
9:15 PM,28.4,8.6,43,30.18,10.0,NNW,5.8,-,N/A,,Clear,340,2013-04-02 02:15:00
9:35 PM,28.4,8.6,43,30.18,10.0,NNW,10.4,-,N/A,,Clear,330,2013-04-02 02:35:00
9:55 PM,28.4,6.8,40,30.19,10.0,NNW,6.9,-,N/A,,Clear,340,2013-04-02 02:55:00
10:15 PM,26.6,8.6,47,30.20,10.0,NW,5.8,-,N/A,,Clear,310,2013-04-02 03:15:00
10:35 PM,26.6,8.6,47,30.20,10.0,NW,3.5,-,N/A,,Clear,310,2013-04-02 03:35:00
10:55 PM,26.6,8.6,47,30.20,10.0,WNW,4.6,-,N/A,,Clear,300,2013-04-02 03:55:00
11:15 PM,24.8,8.6,50,30.20,10.0,WNW,4.6,-,N/A,,Clear,300,2013-04-02 04:15:00
11:35 PM,23.0,10.4,59,30.20,10.0,NW,4.6,-,N/A,,Clear,310,2013-04-02 04:35:00
11:55 PM,23.0,10.4,59,30.20,10.0,WNW,3.5,-,N/A,,Clear,290,2013-04-02 04:55:00